AirNav   Everest Fuels
 
 999 users online  

0MO4 Bert Walter Berkowitz Heliport
Kansas City, Missouri, USA

GOING TO KANSAS CITY?


FAA INFORMATION EFFECTIVE 21 MAY 2020

Location

FAA Identifier: 0MO4
Lat/Long: 39-05-01.1600N 094-34-36.9100W
39-05.019333N 094-34.615167W
39.0836556,-94.5769194
(estimated)
Elevation: 890 ft. / 271 m (estimated)
Variation: 05E (1985)
Time zone: UTC -5 (UTC -6 during Standard Time)
Zip code: 64108

Heliport Operations

Heliport use: Private use. Permission required prior to landing
Activation date: 06/1991
Control tower: no
ARTCC: KANSAS CITY CENTER
FSS: COLUMBIA FLIGHT SERVICE STATION
Attendance: CONTINUOUS
Wind indicator: yes
Segmented circle: no
Lights: FOR FLOOD LGTS CALL 816-556-3133.

Heliport Communications

WX ASOS at MKC (2.5 nm N): PHONE 816-329-2843
WX ASOS at LXT (12 nm SE): 124.175 (816-347-9807)
WX ASOS at MCI (14 nm NW): PHONE 816-329-2808
WX ASOS at OJC (16 nm SW): 119.35 (913-780-6969)
WX AWOS-3 at GPH (19 nm NE): 120.275 (816-407-3399)

Nearby radio navigation aids

VOR radial/distance  VOR name  Freq  Var
MCIr143/14.2KANSAS CITY VORTAC113.2505E
ANXr261/20.9NAPOLEON VORTAC114.0007E

Heliport Services

Runway Information

Helipad H1

Dimensions: 18 x 18 ft. / 5 x 5 m
Surface: concrete
Runway edge lights: FLD
Latitude: 39-05.019333N
Longitude: 094-34.615167W
Elevation: 890.0 ft.
Traffic pattern: leftleft

Heliport Ownership and Management from official FAA records

Ownership: Publicly-owned
Owner: TRUMAN MEDICAL CENTER, INC.
2301 HOLMES
KANSAS CITY, MO 64108
Phone 816-556-3133
Manager: JACK L NICHOLS
2301 HOLMES
KANSAS CITY, MO 64108
Phone 816-556-3133

Additional Remarks

OWNER DESIRES HELIPAD NOT BE CHARTED.
FOR CD CTC KANSAS CITY APCH AT 816-329-2710.

Instrument Procedures

There are no published instrument procedures at 0MO4.

Some nearby airports with instrument procedures:

KMKC - Charles B Wheeler Downtown Airport (2 nm N)
KLXT - Lee's Summit Municipal Airport (12 nm SE)
KMCI - Kansas City International Airport (14 nm NW)
KOJC - Johnson County Executive Airport (16 nm SW)
3GV - East Kansas City Airport (17 nm E)
KGPH - Midwest National Air Center Airport (19 nm NE)
 
Loc | Ops | Rwys | IFR | FBO | Links
Com | Nav | Svcs | Stats | Notes
Area around 0MO4 (Bert Walter Berkowitz Heliport)
 
Road maps at: MapQuest Bing Google
 
Aerial photo
No photo
 
Sectional chart

 
Airport distance calculator
Flying to Bert Walter Berkowitz Heliport? Find the distance to fly.

From to 0MO4

Sunrise and sunset
Times for 06-Jun-2020
 Local
(UTC-5)
 Zulu
(UTC)
Morning civil twilight05:2210:22
Sunrise05:5310:53
Sunset20:4101:41
Evening civil twilight21:1302:13

Current date and time
Zulu (UTC)  06-Jun-2020 14:53:40
Local (UTC-5)  06-Jun-2020 09:53:40
 
METAR
KMKC 
2nm NW 
061354Z 08003KT 10SM CLR 27/22 A2999 RMK AO2 SLP146 T02720217
KLXT 
12nm SE 
061353Z AUTO 18003KT 10SM CLR 28/22 A3001 RMK AO2 SLP152 T02780222
KMCI 
15nm NW 
061353Z 14004KT 10SM BKN250 28/23 A3001 RMK AO2 SLP149 T02780233 $
KOJC 
16nm SW 
061353Z 18004KT 10SM CLR 27/23 A3001 RMK AO2 SLP148 T02670233 $
KGPH 
19nm NE 
061435Z AUTO 14004KT 10SM CLR 26/21 A3002 RMK AO2
TAF
KMKC 
2nm NW 
061120Z 0612/0712 11008KT P6SM FEW200 FM061400 15008KT P6SM SKC
KMCI 
15nm NW 
061120Z 0612/0712 15008KT P6SM FEW200
NOTAMs
Click for the latest NOTAMs
NOTAMs are issued by the DoD/FAA and will open in a separate window not controlled by AirNav.

 

 
 

Would you like to see your business listed on this page?

 If your business provides an interesting product or service to pilots, flight crews, aircraft, or users of the Bert Walter Berkowitz Heliport, you should consider listing it here.  To start the listing process, click on the button below
 
Add a business
 

Other Pages about Bert Walter Berkowitz Heliport

Update a link
 
Copyright © AirNav, LLC. All rights reserved. Privacy Policy  Contact